Погода в Паксе

Лаос     15°11′00″N   105°45′43″E
темп.,
°C
ветер,
м/с
пор.,
м/с
влажн.,
%
обл.,
%
осадки,
мм/ч
давл.,
гПа
погр.,
м
10 августа, ср
ср1001:00+22ююз2799100 7.4 1005509
04:00+22ююз1499100 2.3 1004322
07:00+22ю2499100 11.6 1006289
10:00+23ю139398 1.8 1007263
13:00+25ю248794 2.9 1005525
16:00+26ю1287100 2.8 1003274
19:00+24ююв1193100 4.4 100416
22:00+23юв1196100 0.1 100621
11 августа, чт
чт1101:00+23ю1298100 2.6 100589
04:00+23ююв1298100 1.9 100486
07:00+24ю2594100 3.1 1006286
10:00+26ююз3685100 0.9 1006709
13:00+26ю3688100 2.8 1004717
16:00+26ю3691100 3.4 1003338
19:00+24ююв2295100 8.0 100548
22:00+23ююв2397100 2.8 100795
12 августа, пт
пт1201:00+23ююв2398100 4.4 1007107
04:00+23ююв2298100 1.3 100671
07:00+23ююв259599 1.6 1008235
10:00+27ю468478 1.8 1008863
13:00+27ю368597 4.5 1006721
16:00+27ююв358698 3.6 1006566
19:00+24юв229392 4.6 100729
22:00+23ююв2295100 1.4 101039
13 августа, сб
сб1301:00+23ююв1196100 1.4 100823
04:00+22ю119590 0.0 100821
07:00+24ююв129354 0.1 1009116
10:00+28ю347779 0.6 1010901
13:00+29ююз347143 1.3 10071100
16:00+29ююз357493 0.6 1006950
19:00+25ююв2289100 2.6 100718
22:00+24ююв1192100 0.0 100915
14 августа, вс
вс1401:00+24ююв1194100 0.0 100816
04:00+23юв1195100 0.0 100815
07:00+24ююв1192100 0.0 1009102
10:00+28юз247993 1.3 1009689
13:00+29юз2477100 4.4 1007905
16:00+27вюв1184100 3.5 100626
19:00+25вюв1190100 4.6 100812
22:00+24юв1192100 0.1 100914